Regional Weather Roundup
Issued by NWS

Home | Current Version | Previous Version | Graphics & Text | Print | Product List | Glossary Off
Versions: 1 2 3 4 5 6 7 8 9 10 11 12 13 14 15 16 17 18 19 20 21 22 23 24 25 26 27 28 29 30 31 32 33 34 35 36 37 38 39 40 41 42 43 44 45 46 47 48 49 50

000
ASUS43 KDMX 271001
RWRIA

WEATHER ROUNDUP FOR IOWA
NATIONAL WEATHER SERVICE DES MOINES IA
500 AM CDT SAT MAY 27 2017

NOTE: "FAIR" INDICATES FEW OR NO CLOUDS BELOW 12,000 FEET WITH NO
SIGNIFICANT WEATHER AND/OR OBSTRUCTIONS TO VISIBILITY.

* - THESE STATIONS ARE NOT NWS STATIONS...THUS NOT UNDER NWS
QUALITY CONTROL.  THEY ALSO DO NOT REPORT WEATHER SUCH
AS PRECIPITATION OR FOG.

IAZ001>003-012>014-020>022-031>034-043>046-271100-
   NORTHWEST IOWA

CITY           SKY/WX    TMP DP  RH WIND       PRES   REMARKS
CARROLL *      CLOUDY    54  48  82 NW3       29.89F
CHEROKEE *     CLOUDY    48  47  99 CALM      29.89F
DENISON *      CLOUDY    52  46  82 CALM      29.90F
LE MARS *      CLOUDY    52  48  87 N3        29.90S
ORANGE CITY *  CLOUDY    59  45  58 E6        29.89F
SHELDON *      CLOUDY    50  43  76 NE5       29.88S
SIOUX CITY     CLOUDY    53  49  86 SW3       29.88F
SPENCER        CLOUDY    49  45  86 CALM      29.89F
STORM LAKE *   PTCLDY    55  43  62 NE7       29.90F
$$

IAZ055>058-069>071-079>083-090>094-271100-
   SOUTHWEST IOWA

CITY           SKY/WX    TMP DP  RH WIND       PRES   REMARKS
ATLANTIC *     CLOUDY    57  48  72 N6        29.88F
AUDUBON *      MOCLDY    55  48  76 CALM      29.89F
CLARINDA *     CLOUDY    61  52  72 N6        29.88F
COUNCIL BLFS * CLOUDY    59  48  67 NE6       29.87F
CRESTON *      PTCLDY    61  48  63 NE10      29.89S
HARLAN  *      CLOUDY    55  48  76 NE3       29.91F
LAMONI         CLOUDY    62  60  93 N3        29.87S
RED OAK *      CLOUDY    59  50  72 NE7       29.87F
SHENANDOAH *   CLOUDY    61  52  72 NE9       29.86F
$$

IAZ047>049-059>061-072>074-084-271100-
   CENTRAL IOWA

CITY           SKY/WX    TMP DP  RH WIND       PRES   REMARKS
AMES           FOG       54  54 100 CALM      29.88F VSB 1/4
ANKENY *       FOG       54  54 100 CALM      29.89S VSB<1/4
BOONE *        CLOUDY    55  50  82 N7        29.88F
CHARITON *     FOG       57  57 100 N3        29.88S VSB 1
DES MOINES     CLOUDY    62  60  93 E5        29.87F
GRINNELL*      FOG       56  55  97 CALM      29.91R VSB 1/4
KNOXVILLE *    CLOUDY    59  59 100 CALM      29.88R
MARSHALLTOWN   FOG       52  52 100 CALM      29.89R VSB 1/4
NEWTON *       CLOUDY    57  55  94 CALM      29.89R FOG
PELLA *          N/A     57  56  97 CALM      29.90R FOG
PERRY *          N/A     56  48  73 N3        29.89S
$$

IAZ004>006-015-016-023>025-035-036-271100-
   NORTH CENTRAL IOWA

CITY           SKY/WX    TMP DP  RH WIND       PRES   REMARKS
ALGONA *       CLOUDY    57  45  62 N5        29.90F
CLARION *      CLOUDY    55  50  82 CALM      29.89S
ESTHERVILLE    CLOUDY    49  46  90 CALM      29.89F
FORT DODGE *   CLOUDY    50  46  87 CALM      29.87F
MASON CITY     CLEAR     49  45  86 W3        29.90S
FOREST CITY *    N/A     46  37  71 CALM      29.89F
WEBSTER CITY * CLOUDY    54  46  76 CALM      29.87S
$$

IAZ007>011-017>019-026>030-037>042-050>054-066-271100-
   NORTHEAST IOWA

CITY           SKY/WX    TMP DP  RH WIND       PRES   REMARKS
CEDAR RAPIDS   FOG       51  51 100 N5        29.89R VSB 1/8
CHARLES CITY * FOG       54  54 100 CALM      29.90R VSB<1/4
CLINTON *      CLOUDY    57  56  96 E3        29.89R FOG
DECORAH *      FOG       59  59 100 S5        29.89R VSB 1/4
DUBUQUE        CLEAR     51  50  96 CALM      29.90R FOG
MONTICELLO *   FOG       52  52 100 CALM      29.91R VSB<1/4
OELWEIN *      FOG       59  59 100 CALM      29.91R VSB<1/4
WATERLOO       FOG       51  50  96 CALM      29.89R VSB<1/4
$$

IAZ064-065-067-068-078-271100-
   EAST CENTRAL IOWA

CITY           SKY/WX    TMP DP  RH WIND       PRES   REMARKS
DAVENPORT      FOG       56  56 100 E3        29.89R VSB 3/4
IOWA CITY      CLOUDY    52  51  97 CALM      29.90R FOG
MT. PLEASANT * FOG       54  54 100 CALM      29.89R VSB 1/4
MUSCATINE *    CLOUDY    55  55 100 CALM      29.89R FOG
QUAD CITIES    FOG       58  56  93 CALM      29.88R VSB 1/2
$$

IAZ062-063-075>077-085>089-095>099-271100-
   SOUTHEAST IOWA

CITY           SKY/WX    TMP DP  RH WIND       PRES   REMARKS
BURLINGTON     FOG       58  58 100 NE3       29.88R VSB 1/4
FAIRFIELD *    FOG       55  55 100 CALM      29.88R VSB<1/4
FORT MADISON * FOG       54  54 100 CALM      29.89R VSB<1/4
KEOKUK *       FOG       55  55 100 CALM      29.87S VSB 1/2
OSKALOOSA *      N/A     56  55  98 N6        29.89R FOG
OTTUMWA        FOG       56  56 100 CALM      29.87S VSB 1/4
WASHINGTON *   FOG       54  54 100 N3        29.90R VSB<1/4
$$

ABBREVIATIONS USED IN REMARKS
   TC - TEMPERATURES IN CELSIUS
  WCI - WIND CHILL INDEX
   HX - HEAT INDEX
  VSB - VISIBILITY
$$





USA.gov is the U.S. government's official web portal to all federal, state and local government web resources and services.